Time,TemperatureF,DewpointF,PressureIn,WindDirection,WindDirectionDegrees,WindSpeedMPH,WindSpeedGustMPH,Humidity,HourlyPrecipIn,Conditions,Clouds,dailyrainin,SoftwareType,DateUTC
2013-02-04 00:00:00,52.7,33.6,30.10,NNW,341,1.0,3.0,48,0.00,,,0.00,WeatherCatV1.10B1784,2013-02-04 08:00:00,
2013-02-04 00:05:00,52.5,33.4,30.10,NNW,339,2.0,5.0,48,0.00,,,0.00,WeatherCatV1.10B1784,2013-02-04 08:05:00,
2013-02-04 00:10:00,52.2,32.6,30.10,NNW,346,2.0,6.0,47,0.00,,,0.00,WeatherCatV1.10B1784,2013-02-04 08:10:00,
2013-02-04 00:15:00,52.4,32.8,30.10,NW,314,2.0,4.0,47,0.00,,,0.00,WeatherCatV1.10B1784,2013-02-04 08:15:00,
2013-02-04 00:20:00,52.4,32.8,30.10,NNW,342,0.0,1.0,47,0.00,,,0.00,WeatherCatV1.10B1784,2013-02-04 08:20:00,
2013-02-04 00:25:00,52.3,32.7,30.10,NNW,331,0.0,0.0,47,0.00,,,0.00,WeatherCatV1.10B1784,2013-02-04 08:25:00,
2013-02-04 00:30:00,52.2,32.6,30.10,NNW,332,0.0,0.0,47,0.00,,,0.00,WeatherCatV1.10B1784,2013-02-04 08:30:00,
2013-02-04 00:35:00,51.8,32.7,30.10,NNW,336,0.0,2.0,48,0.00,,,0.00,WeatherCatV1.10B1784,2013-02-04 08:35:00,
2013-02-04 00:40:00,51.9,32.8,30.10,NNW,333,3.0,4.0,48,0.00,,,0.00,WeatherCatV1.10B1784,2013-02-04 08:40:00,
2013-02-04 00:45:00,51.9,32.8,30.10,ENE,77,3.0,4.0,48,0.00,,,0.00,WeatherCatV1.10B1784,2013-02-04 08:45:00,
2013-02-04 00:50:00,52.6,31.9,30.10,NNW,339,1.0,3.0,45,0.00,,,0.00,WeatherCatV1.10B1784,2013-02-04 08:50:00,
2013-02-04 00:55:00,52.9,32.7,30.10,NW,319,3.0,4.0,46,0.00,,,0.00,WeatherCatV1.10B1784,2013-02-04 08:55:00,
2013-02-04 01:00:00,52.9,32.1,30.10,NNE,33,3.0,5.0,45,0.00,,,0.00,WeatherCatV1.10B1784,2013-02-04 09:00:00,
2013-02-04 01:05:00,53.0,33.3,30.10,North,8,1.0,1.0,47,0.00,,,0.00,WeatherCatV1.10B1784,2013-02-04 09:05:00,
2013-02-04 01:10:00,52.8,32.6,30.10,NNW,330,3.0,3.0,46,0.00,,,0.00,WeatherCatV1.10B1784,2013-02-04 09:10:00,
2013-02-04 01:15:00,52.7,33.0,30.10,NNW,338,3.0,5.0,47,0.00,,,0.00,WeatherCatV1.10B1784,2013-02-04 09:15:00,
2013-02-04 01:20:00,52.3,32.7,30.10,North,349,6.0,7.0,47,0.00,,,0.00,WeatherCatV1.10B1784,2013-02-04 09:20:00,
2013-02-04 01:25:00,52.3,33.2,30.10,NNW,344,3.0,7.0,48,0.00,,,0.00,WeatherCatV1.10B1784,2013-02-04 09:25:00,
2013-02-04 01:30:00,52.4,32.8,30.10,NNW,347,5.0,6.0,47,0.00,,,0.00,WeatherCatV1.10B1784,2013-02-04 09:30:00,
2013-02-04 01:35:00,52.6,32.4,30.10,NNW,336,4.0,6.0,46,0.00,,,0.00,WeatherCatV1.10B1784,2013-02-04 09:35:00,
2013-02-04 01:40:00,52.6,33.0,30.10,NNW,329,3.0,5.0,47,0.00,,,0.00,WeatherCatV1.10B1784,2013-02-04 09:40:00,
2013-02-04 01:45:00,52.8,32.6,30.10,North,356,2.0,5.0,46,0.00,,,0.00,WeatherCatV1.10B1784,2013-02-04 09:45:00,
2013-02-04 01:50:00,53.0,32.8,30.10,NE,52,0.0,3.0,46,0.00,,,0.00,WeatherCatV1.10B1784,2013-02-04 09:50:00,
2013-02-04 01:55:00,53.0,33.8,30.10,North,2,0.0,2.0,48,0.00,,,0.00,WeatherCatV1.10B1784,2013-02-04 09:55:00,
2013-02-04 02:00:00,52.7,33.6,30.10,North,0,0.0,1.0,48,0.00,,,0.00,WeatherCatV1.10B1784,2013-02-04 10:00:00,
2013-02-04 02:05:00,52.5,33.4,30.10,NNW,331,1.0,1.0,48,0.00,,,0.00,WeatherCatV1.10B1784,2013-02-04 10:05:00,
2013-02-04 02:10:00,52.3,32.7,30.10,NNW,331,0.0,1.0,47,0.00,,,0.00,WeatherCatV1.10B1784,2013-02-04 10:10:00,
2013-02-04 02:15:00,52.1,33.5,30.10,NNW,330,0.0,0.0,49,0.00,,,0.00,WeatherCatV1.10B1784,2013-02-04 10:15:00,
2013-02-04 02:20:00,51.9,33.3,30.10,NNW,329,2.0,2.0,49,0.00,,,0.00,WeatherCatV1.10B1784,2013-02-04 10:20:00,
2013-02-04 02:25:00,51.8,32.7,30.10,NNW,336,0.0,1.0,48,0.00,,,0.00,WeatherCatV1.10B1784,2013-02-04 10:25:00,
2013-02-04 02:30:00,51.8,32.7,30.10,NNW,336,0.0,0.0,48,0.00,,,0.00,WeatherCatV1.10B1784,2013-02-04 10:30:00,
2013-02-04 02:35:00,51.7,33.2,30.10,NNW,336,0.0,0.0,49,0.00,,,0.00,WeatherCatV1.10B1784,2013-02-04 10:35:00,
2013-02-04 02:40:00,51.4,33.4,30.10,NNW,335,0.0,1.0,50,0.00,,,0.00,WeatherCatV1.10B1784,2013-02-04 10:40:00,
2013-02-04 02:45:00,51.2,33.2,30.09,NNW,335,0.0,0.0,50,0.00,,,0.00,WeatherCatV1.10B1784,2013-02-04 10:45:00,
2013-02-04 02:50:00,51.1,32.6,30.09,NNW,335,0.0,0.0,49,0.00,,,0.00,WeatherCatV1.10B1784,2013-02-04 10:50:00,
2013-02-04 02:52:00,51.2,33.2,30.09,NNW,335,0.0,0.0,50,0.00,,,0.00,WeatherCatV1.10B1784,2013-02-04 10:52:00,
2013-02-04 02:57:00,51.3,32.8,30.09,NNW,335,0.0,0.0,49,0.00,,,0.00,WeatherCatV1.10B1784,2013-02-04 10:57:00,
2013-02-04 03:02:00,51.2,32.7,30.09,NNW,335,0.0,0.0,49,0.00,,,0.00,WeatherCatV1.10B1784,2013-02-04 11:02:00,
2013-02-04 03:07:00,51.2,31.1,30.09,NNW,335,0.0,0.0,46,0.00,,,0.00,WeatherCatV1.10B1784,2013-02-04 11:07:00,
2013-02-04 03:12:00,51.3,30.7,30.09,NNW,335,0.0,0.0,45,0.00,,,0.00,WeatherCatV1.10B1784,2013-02-04 11:12:00,
2013-02-04 03:17:00,51.4,31.3,30.08,NNW,335,0.0,0.0,46,0.00,,,0.00,WeatherCatV1.10B1784,2013-02-04 11:17:00,
2013-02-04 03:22:00,51.5,31.4,30.08,NNW,335,0.0,0.0,46,0.00,,,0.00,WeatherCatV1.10B1784,2013-02-04 11:22:00,
2013-02-04 03:27:00,51.4,31.9,30.08,NNW,335,0.0,0.0,47,0.00,,,0.00,WeatherCatV1.10B1784,2013-02-04 11:27:00,
2013-02-04 03:32:00,51.4,31.9,30.08,NNW,335,0.0,0.0,47,0.00,,,0.00,WeatherCatV1.10B1784,2013-02-04 11:32:00,
2013-02-04 03:37:00,51.2,31.1,30.08,NNW,335,0.0,1.0,46,0.00,,,0.00,WeatherCatV1.10B1784,2013-02-04 11:37:00,
2013-02-04 03:42:00,51.2,29.5,30.08,NNW,335,0.0,0.0,43,0.00,,,0.00,WeatherCatV1.10B1784,2013-02-04 11:42:00,
2013-02-04 03:47:00,51.2,30.0,30.08,NNW,337,0.0,0.0,44,0.00,,,0.00,WeatherCatV1.10B1784,2013-02-04 11:47:00,
2013-02-04 03:52:00,51.3,30.1,30.08,NNW,342,1.0,1.0,44,0.00,,,0.00,WeatherCatV1.10B1784,2013-02-04 11:52:00,
2013-02-04 03:57:00,51.2,28.9,30.08,NNW,338,0.0,0.0,42,0.00,,,0.00,WeatherCatV1.10B1784,2013-02-04 11:57:00,
2013-02-04 04:02:00,51.2,29.5,30.07,NNW,338,0.0,0.0,43,0.00,,,0.00,WeatherCatV1.10B1784,2013-02-04 12:02:00,
2013-02-04 04:07:00,51.2,29.5,30.07,NNW,331,0.0,1.0,43,0.00,,,0.00,WeatherCatV1.10B1784,2013-02-04 12:07:00,
2013-02-04 04:12:00,51.0,29.3,30.07,NNW,337,0.0,1.0,43,0.00,,,0.00,WeatherCatV1.10B1784,2013-02-04 12:12:00,
2013-02-04 04:17:00,51.2,28.3,30.07,NNW,337,0.0,0.0,41,0.00,,,0.00,WeatherCatV1.10B1784,2013-02-04 12:17:00,
2013-02-04 04:22:00,51.6,28.1,30.07,NNW,337,0.0,0.0,40,0.00,,,0.00,WeatherCatV1.10B1784,2013-02-04 12:22:00,
2013-02-04 04:27:00,52.2,26.7,30.07,SSW,212,0.0,0.0,37,0.00,,,0.00,WeatherCatV1.10B1784,2013-02-04 12:27:00,
2013-02-04 04:32:00,52.7,27.2,30.06,WSW,253,0.0,0.0,37,0.00,,,0.00,WeatherCatV1.10B1784,2013-02-04 12:32:00,
2013-02-04 04:37:00,52.9,26.7,30.06,WSW,253,0.0,0.0,36,0.00,,,0.00,WeatherCatV1.10B1784,2013-02-04 12:37:00,
2013-02-04 04:42:00,53.0,26.8,30.06,WSW,254,0.0,0.0,36,0.00,,,0.00,WeatherCatV1.10B1784,2013-02-04 12:42:00,
2013-02-04 04:47:00,53.1,26.2,30.06,WSW,254,0.0,0.0,35,0.00,,,0.00,WeatherCatV1.10B1784,2013-02-04 12:47:00,
2013-02-04 04:52:00,53.1,26.2,30.06,NW,324,0.0,0.0,35,0.00,,,0.00,WeatherCatV1.10B1784,2013-02-04 12:52:00,
2013-02-04 04:57:00,53.2,25.6,30.06,NW,324,0.0,0.0,34,0.00,,,0.00,WeatherCatV1.10B1784,2013-02-04 12:57:00,
2013-02-04 05:02:00,53.3,26.4,30.06,NNW,344,0.0,1.0,35,0.00,,,0.00,WeatherCatV1.10B1784,2013-02-04 13:02:00,
2013-02-04 05:07:00,53.4,25.7,30.06,NNW,344,0.0,0.0,34,0.00,,,0.00,WeatherCatV1.10B1784,2013-02-04 13:07:00,
2013-02-04 05:12:00,53.5,26.5,30.06,NNW,344,0.0,0.0,35,0.00,,,0.00,WeatherCatV1.10B1784,2013-02-04 13:12:00,
2013-02-04 05:17:00,53.3,27.0,30.06,NNW,343,0.0,1.0,36,0.00,,,0.00,WeatherCatV1.10B1784,2013-02-04 13:17:00,
2013-02-04 05:22:00,53.1,26.9,30.06,NNW,343,0.0,0.0,36,0.00,,,0.00,WeatherCatV1.10B1784,2013-02-04 13:22:00,
2013-02-04 05:27:00,52.9,27.3,30.06,NNW,343,0.0,0.0,37,0.00,,,0.00,WeatherCatV1.10B1784,2013-02-04 13:27:00,
2013-02-04 05:32:00,52.7,27.2,30.06,NNW,343,0.0,0.0,37,0.00,,,0.00,WeatherCatV1.10B1784,2013-02-04 13:32:00,
2013-02-04 05:38:00,52.5,27.0,30.06,NNW,343,0.0,0.0,37,0.00,,,0.00,WeatherCatV1.10B1784,2013-02-04 13:38:00,
2013-02-04 05:43:00,52.5,27.0,30.06,NNW,343,0.0,0.0,37,0.00,,,0.00,WeatherCatV1.10B1784,2013-02-04 13:43:00,
2013-02-04 05:48:00,52.4,28.2,30.05,NW,325,0.0,0.0,39,0.00,,,0.00,WeatherCatV1.10B1784,2013-02-04 13:48:00,
2013-02-04 05:53:00,52.2,28.0,30.05,NNW,337,0.0,0.0,39,0.00,,,0.00,WeatherCatV1.10B1784,2013-02-04 13:53:00,
2013-02-04 05:58:00,52.0,27.8,30.05,NNW,339,0.0,0.0,39,0.00,,,0.00,WeatherCatV1.10B1784,2013-02-04 13:58:00,
2013-02-04 06:03:00,51.9,25.8,30.06,NNW,339,0.0,0.0,36,0.00,,,0.00,WeatherCatV1.10B1784,2013-02-04 14:03:00,
2013-02-04 06:08:00,52.2,24.7,30.06,NNW,339,0.0,0.0,34,0.00,,,0.00,WeatherCatV1.10B1784,2013-02-04 14:08:00,
2013-02-04 06:13:00,52.5,25.6,30.06,NNW,340,0.0,0.0,35,0.00,,,0.00,WeatherCatV1.10B1784,2013-02-04 14:13:00,
2013-02-04 06:18:00,52.7,25.8,30.06,NNW,340,0.0,0.0,35,0.00,,,0.00,WeatherCatV1.10B1784,2013-02-04 14:18:00,
2013-02-04 06:23:00,52.7,26.5,30.06,NNW,340,0.0,0.0,36,0.00,,,0.00,WeatherCatV1.10B1784,2013-02-04 14:23:00,
2013-02-04 06:28:00,52.6,26.4,30.06,NNW,340,0.0,0.0,36,0.00,,,0.00,WeatherCatV1.10B1784,2013-02-04 14:28:00,
2013-02-04 06:33:00,52.4,26.9,30.07,NNW,340,0.0,0.0,37,0.00,,,0.00,WeatherCatV1.10B1784,2013-02-04 14:33:00,
2013-02-04 06:38:00,52.1,27.3,30.07,NNW,340,0.0,0.0,38,0.00,,,0.00,WeatherCatV1.10B1784,2013-02-04 14:38:00,
2013-02-04 06:43:00,51.7,28.2,30.07,NNW,341,0.0,0.0,40,0.00,,,0.00,WeatherCatV1.10B1784,2013-02-04 14:43:00,
2013-02-04 06:48:00,51.2,27.1,30.07,NNW,340,0.0,0.0,39,0.00,,,0.00,WeatherCatV1.10B1784,2013-02-04 14:48:00,
2013-02-04 06:53:00,51.0,28.1,30.07,NNW,340,0.0,0.0,41,0.00,,,0.00,WeatherCatV1.10B1784,2013-02-04 14:53:00,
2013-02-04 06:58:00,50.8,28.0,30.07,NNW,340,0.0,0.0,41,0.00,,,0.00,WeatherCatV1.10B1784,2013-02-04 14:58:00,
2013-02-04 07:03:00,50.5,27.7,30.07,NNW,341,0.0,0.0,41,0.00,,,0.00,WeatherCatV1.10B1784,2013-02-04 15:03:00,
2013-02-04 07:08:00,50.4,27.0,30.07,NNW,341,0.0,0.0,40,0.00,,,0.00,WeatherCatV1.10B1784,2013-02-04 15:08:00,
2013-02-04 07:13:00,50.3,26.9,30.07,NNW,341,0.0,0.0,40,0.00,,,0.00,WeatherCatV1.10B1784,2013-02-04 15:13:00,
2013-02-04 07:18:00,50.4,26.4,30.07,NNW,341,0.0,0.0,39,0.00,,,0.00,WeatherCatV1.10B1784,2013-02-04 15:18:00,
2013-02-04 07:23:00,50.6,26.6,30.07,NNW,341,0.0,0.0,39,0.00,,,0.00,WeatherCatV1.10B1784,2013-02-04 15:23:00,
2013-02-04 07:28:00,51.0,27.5,30.07,NNW,341,0.0,0.0,40,0.00,,,0.00,WeatherCatV1.10B1784,2013-02-04 15:28:00,
2013-02-04 07:33:00,51.2,28.9,30.08,NNW,341,0.0,0.0,42,0.00,,,0.00,WeatherCatV1.10B1784,2013-02-04 15:33:00,
2013-02-04 07:38:00,51.3,30.1,30.08,NNW,341,0.0,0.0,44,0.00,,,0.00,WeatherCatV1.10B1784,2013-02-04 15:38:00,
2013-02-04 07:43:00,51.3,30.7,30.08,NNW,340,1.0,2.0,45,0.00,,,0.00,WeatherCatV1.10B1784,2013-02-04 15:43:00,
2013-02-04 07:48:00,51.2,30.6,30.08,NNW,339,0.0,2.0,45,0.00,,,0.00,WeatherCatV1.10B1784,2013-02-04 15:48:00,
2013-02-04 07:53:00,51.2,27.7,30.08,NNW,339,0.0,0.0,40,0.00,,,0.00,WeatherCatV1.10B1784,2013-02-04 15:53:00,
2013-02-04 07:58:00,51.3,27.8,30.08,NNW,339,0.0,1.0,40,0.00,,,0.00,WeatherCatV1.10B1784,2013-02-04 15:58:00,
2013-02-04 08:03:00,51.5,27.4,30.08,NNW,339,0.0,0.0,39,0.00,,,0.00,WeatherCatV1.10B1784,2013-02-04 16:03:00,
2013-02-04 08:08:00,51.7,27.6,30.08,NNW,339,0.0,0.0,39,0.00,,,0.00,WeatherCatV1.10B1784,2013-02-04 16:08:00,
2013-02-04 08:13:00,52.1,29.1,30.08,NNW,339,0.0,0.0,41,0.00,,,0.00,WeatherCatV1.10B1784,2013-02-04 16:13:00,
2013-02-04 08:18:00,52.4,32.2,30.08,NNW,339,0.0,0.0,46,0.00,,,0.00,WeatherCatV1.10B1784,2013-02-04 16:18:00,
2013-02-04 08:23:00,52.7,30.3,30.08,NNW,339,0.0,0.0,42,0.00,,,0.00,WeatherCatV1.10B1784,2013-02-04 16:23:00,
2013-02-04 08:28:00,53.0,28.7,30.08,NNW,339,0.0,0.0,39,0.00,,,0.00,WeatherCatV1.10B1784,2013-02-04 16:28:00,
2013-02-04 08:33:00,53.8,29.4,30.08,NNW,333,0.0,0.0,39,0.00,,,0.00,WeatherCatV1.10B1784,2013-02-04 16:33:00,
2013-02-04 08:38:00,54.4,30.0,30.08,NNE,23,0.0,0.0,39,0.00,,,0.00,WeatherCatV1.10B1784,2013-02-04 16:38:00,
2013-02-04 08:43:00,54.8,31.6,30.08,NNE,23,0.0,0.0,41,0.00,,,0.00,WeatherCatV1.10B1784,2013-02-04 16:43:00,
2013-02-04 08:48:00,55.2,30.7,30.08,SE,128,0.0,0.0,39,0.00,,,0.00,WeatherCatV1.10B1784,2013-02-04 16:48:00,
2013-02-04 08:53:00,55.6,30.4,30.08,SE,128,0.0,0.0,38,0.00,,,0.00,WeatherCatV1.10B1784,2013-02-04 16:53:00,
2013-02-04 08:58:00,56.4,31.8,30.08,SE,146,0.0,1.0,39,0.00,,,0.00,WeatherCatV1.10B1784,2013-02-04 16:58:00,
2013-02-04 09:03:00,57.2,33.1,30.09,SE,146,0.0,0.0,40,0.00,,,0.00,WeatherCatV1.10B1784,2013-02-04 17:03:00,
2013-02-04 09:08:00,57.7,35.9,30.09,SE,146,0.0,0.0,44,0.00,,,0.00,WeatherCatV1.10B1784,2013-02-04 17:08:00,
2013-02-04 09:13:00,57.7,37.6,30.09,SE,146,0.0,0.0,47,0.00,,,0.00,WeatherCatV1.10B1784,2013-02-04 17:13:00,
2013-02-04 09:18:00,57.7,37.1,30.09,SE,144,0.0,1.0,46,0.00,,,0.00,WeatherCatV1.10B1784,2013-02-04 17:18:00,
2013-02-04 09:23:00,57.8,37.2,30.09,SE,144,0.0,1.0,46,0.00,,,0.00,WeatherCatV1.10B1784,2013-02-04 17:23:00,
2013-02-04 09:28:00,57.9,36.1,30.09,SE,138,0.0,1.0,44,0.00,,,0.00,WeatherCatV1.10B1784,2013-02-04 17:28:00,
2013-02-04 09:33:00,58.2,38.1,30.09,SE,137,0.0,1.0,47,0.00,,,0.00,WeatherCatV1.10B1784,2013-02-04 17:33:00,
2013-02-04 09:38:00,58.5,38.9,30.09,ESE,104,0.0,1.0,48,0.00,,,0.00,WeatherCatV1.10B1784,2013-02-04 17:38:00,
2013-02-04 09:43:00,58.8,39.2,30.09,SE,131,0.0,0.0,48,0.00,,,0.00,WeatherCatV1.10B1784,2013-02-04 17:43:00,
2013-02-04 09:48:00,59.2,39.0,30.10,SE,141,1.0,2.0,47,0.00,,,0.00,WeatherCatV1.10B1784,2013-02-04 17:48:00,
2013-02-04 09:53:00,59.7,37.8,30.10,SSE,151,1.0,2.0,44,0.00,,,0.00,WeatherCatV1.10B1784,2013-02-04 17:53:00,
2013-02-04 09:58:00,60.3,38.3,30.10,SSE,165,0.0,0.0,44,0.00,,,0.00,WeatherCatV1.10B1784,2013-02-04 17:58:00,
2013-02-04 10:03:00,60.6,39.1,30.10,SSE,163,0.0,0.0,45,0.00,,,0.00,WeatherCatV1.10B1784,2013-02-04 18:03:00,
2013-02-04 10:08:00,61.2,38.5,30.10,SSE,158,0.0,0.0,43,0.00,,,0.00,WeatherCatV1.10B1784,2013-02-04 18:08:00,
2013-02-04 10:13:00,61.5,39.4,30.10,SSE,150,0.0,1.0,44,0.00,,,0.00,WeatherCatV1.10B1784,2013-02-04 18:13:00,
2013-02-04 10:18:00,61.5,40.5,30.10,North,10,0.0,0.0,46,0.00,,,0.00,WeatherCatV1.10B1784,2013-02-04 18:18:00,
2013-02-04 10:23:00,62.2,40.6,30.10,SSE,151,0.0,1.0,45,0.00,,,0.00,WeatherCatV1.10B1784,2013-02-04 18:23:00,
2013-02-04 10:28:00,63.0,41.9,30.10,NNE,13,0.0,1.0,46,0.00,,,0.00,WeatherCatV1.10B1784,2013-02-04 18:28:00,
2013-02-04 10:33:00,63.2,40.9,30.09,SSE,158,0.0,2.0,44,0.00,,,0.00,WeatherCatV1.10B1784,2013-02-04 18:33:00,
2013-02-04 10:38:00,63.3,42.2,30.09,SE,143,0.0,2.0,46,0.00,,,0.00,WeatherCatV1.10B1784,2013-02-04 18:38:00,
2013-02-04 10:43:00,63.6,42.4,30.09,SE,142,0.0,0.0,46,0.00,,,0.00,WeatherCatV1.10B1784,2013-02-04 18:43:00,
2013-02-04 10:48:00,63.8,42.0,30.09,ENE,69,0.0,1.0,45,0.00,,,0.00,WeatherCatV1.10B1784,2013-02-04 18:48:00,
2013-02-04 10:53:00,63.6,43.0,30.09,SSE,148,2.0,2.0,47,0.00,,,0.00,WeatherCatV1.10B1784,2013-02-04 18:53:00,
2013-02-04 10:58:00,64.3,43.1,30.09,SSE,151,2.0,3.0,46,0.00,,,0.00,WeatherCatV1.10B1784,2013-02-04 18:58:00,
2013-02-04 11:03:00,64.7,43.4,30.09,SSE,162,0.0,2.0,46,0.00,,,0.00,WeatherCatV1.10B1784,2013-02-04 19:03:00,
2013-02-04 11:08:00,64.7,43.4,30.09,ESE,123,1.0,1.0,46,0.00,,,0.00,WeatherCatV1.10B1784,2013-02-04 19:08:00,
2013-02-04 11:13:00,64.7,42.9,30.09,SSE,152,1.0,1.0,45,0.00,,,0.00,WeatherCatV1.10B1784,2013-02-04 19:13:00,
2013-02-04 11:18:00,64.9,43.0,30.08,SSE,148,0.0,1.0,45,0.00,,,0.00,WeatherCatV1.10B1784,2013-02-04 19:18:00,
2013-02-04 11:23:00,65.4,43.5,30.08,ESE,119,0.0,2.0,45,0.00,,,0.00,WeatherCatV1.10B1784,2013-02-04 19:23:00,
2013-02-04 11:28:00,65.5,44.7,30.08,SE,142,0.0,2.0,47,0.00,,,0.00,WeatherCatV1.10B1784,2013-02-04 19:28:00,
2013-02-04 11:33:00,65.5,45.3,30.08,SE,138,0.0,1.0,48,0.00,,,0.00,WeatherCatV1.10B1784,2013-02-04 19:33:00,
2013-02-04 11:38:00,65.3,45.1,30.08,SE,137,0.0,0.0,48,0.00,,,0.00,WeatherCatV1.10B1784,2013-02-04 19:38:00,
2013-02-04 11:43:00,65.3,45.6,30.08,SSE,155,1.0,2.0,49,0.00,,,0.00,WeatherCatV1.10B1784,2013-02-04 19:43:00,
2013-02-04 11:48:00,65.6,46.5,30.07,SSE,166,0.0,2.0,50,0.00,,,0.00,WeatherCatV1.10B1784,2013-02-04 19:48:00,
2013-02-04 11:53:00,65.3,45.1,30.07,SSE,167,0.0,0.0,48,0.00,,,0.00,WeatherCatV1.10B1784,2013-02-04 19:53:00,
2013-02-04 11:58:00,64.9,45.8,30.07,SSE,162,0.0,0.0,50,0.00,,,0.00,WeatherCatV1.10B1784,2013-02-04 19:58:00,
2013-02-04 12:03:00,64.8,45.7,30.07,SSE,162,0.0,0.0,50,0.00,,,0.00,WeatherCatV1.10B1784,2013-02-04 20:03:00,
2013-02-04 12:08:00,64.7,44.6,30.07,NNW,335,0.0,1.0,48,0.00,,,0.00,WeatherCatV1.10B1784,2013-02-04 20:08:00,
2013-02-04 12:13:00,64.6,44.5,30.07,East,87,0.0,0.0,48,0.00,,,0.00,WeatherCatV1.10B1784,2013-02-04 20:13:00,
2013-02-04 12:18:00,64.8,45.2,30.06,SSE,147,0.0,1.0,49,0.00,,,0.00,WeatherCatV1.10B1784,2013-02-04 20:18:00,
2013-02-04 12:23:00,65.1,45.5,30.06,SE,140,0.0,1.0,49,0.00,,,0.00,WeatherCatV1.10B1784,2013-02-04 20:23:00,
2013-02-04 12:28:00,65.2,45.6,30.06,SSE,156,0.0,0.0,49,0.00,,,0.00,WeatherCatV1.10B1784,2013-02-04 20:28:00,
2013-02-04 12:33:00,65.2,46.1,30.05,NW,304,0.0,0.0,50,0.00,,,0.00,WeatherCatV1.10B1784,2013-02-04 20:33:00,
2013-02-04 12:38:00,65.2,46.1,30.05,SE,140,0.0,1.0,50,0.00,,,0.00,WeatherCatV1.10B1784,2013-02-04 20:38:00,
2013-02-04 12:43:00,65.3,45.1,30.05,ESE,121,0.0,0.0,48,0.00,,,0.00,WeatherCatV1.10B1784,2013-02-04 20:43:00,
2013-02-04 12:48:00,65.4,45.7,30.04,ESE,121,0.0,2.0,49,0.00,,,0.00,WeatherCatV1.10B1784,2013-02-04 20:48:00,
2013-02-04 12:53:00,65.3,46.2,30.04,ESE,108,0.0,1.0,50,0.00,,,0.00,WeatherCatV1.10B1784,2013-02-04 20:53:00,
2013-02-04 12:58:00,65.1,46.0,30.04,SE,140,1.0,2.0,50,0.00,,,0.00,WeatherCatV1.10B1784,2013-02-04 20:58:00,
2013-02-04 13:03:00,64.7,46.1,30.04,SE,124,0.0,1.0,51,0.00,,,0.00,WeatherCatV1.10B1784,2013-02-04 21:03:00,
2013-02-04 13:08:00,64.7,46.1,30.04,SE,144,1.0,1.0,51,0.00,,,0.00,WeatherCatV1.10B1784,2013-02-04 21:08:00,
2013-02-04 13:13:00,64.8,46.2,30.04,SE,142,0.0,0.0,51,0.00,,,0.00,WeatherCatV1.10B1784,2013-02-04 21:13:00,
2013-02-04 13:18:00,64.6,46.1,30.03,SE,146,2.0,5.0,51,0.00,,,0.00,WeatherCatV1.10B1784,2013-02-04 21:18:00,
2013-02-04 13:23:00,64.1,46.6,30.03,ESE,104,1.0,1.0,53,0.00,,,0.00,WeatherCatV1.10B1784,2013-02-04 21:23:00,
2013-02-04 13:28:00,64.0,46.5,30.03,SE,134,2.0,2.0,53,0.00,,,0.00,WeatherCatV1.10B1784,2013-02-04 21:28:00,
2013-02-04 13:33:00,63.7,46.7,30.02,SE,133,0.0,2.0,54,0.00,,,0.00,WeatherCatV1.10B1784,2013-02-04 21:33:00,
2013-02-04 13:38:00,63.6,47.1,30.02,SE,133,0.0,0.0,55,0.00,,,0.00,WeatherCatV1.10B1784,2013-02-04 21:38:00,
2013-02-04 13:43:00,63.6,46.6,30.02,ESE,119,1.0,1.0,54,0.00,,,0.00,WeatherCatV1.10B1784,2013-02-04 21:43:00,
2013-02-04 13:48:00,63.5,46.6,30.02,SE,131,0.0,1.0,54,0.00,,,0.00,WeatherCatV1.10B1784,2013-02-04 21:48:00,
2013-02-04 13:53:00,63.4,45.5,30.02,SE,134,0.0,1.0,52,0.00,,,0.00,WeatherCatV1.10B1784,2013-02-04 21:53:00,
2013-02-04 13:58:00,63.0,45.6,30.02,SSE,148,0.0,2.0,53,0.00,,,0.00,WeatherCatV1.10B1784,2013-02-04 21:58:00,
2013-02-04 14:03:00,62.9,46.5,30.01,SSE,168,1.0,1.0,55,0.00,,,0.00,WeatherCatV1.10B1784,2013-02-04 22:03:00,
2013-02-04 14:08:00,62.8,45.9,30.01,SSE,159,0.0,0.0,54,0.00,,,0.00,WeatherCatV1.10B1784,2013-02-04 22:08:00,
2013-02-04 14:13:00,62.7,46.3,30.01,SSE,158,0.0,0.0,55,0.00,,,0.00,WeatherCatV1.10B1784,2013-02-04 22:13:00,
2013-02-04 14:18:00,62.6,45.7,30.01,SSE,162,0.0,0.0,54,0.00,,,0.00,WeatherCatV1.10B1784,2013-02-04 22:18:00,
2013-02-04 14:23:00,62.5,46.6,30.01,SE,143,1.0,1.0,56,0.00,,,0.00,WeatherCatV1.10B1784,2013-02-04 22:23:00,
2013-02-04 14:28:00,62.5,46.1,30.01,SE,146,0.0,0.0,55,0.00,,,0.00,WeatherCatV1.10B1784,2013-02-04 22:28:00,
2013-02-04 14:33:00,62.6,46.7,30.00,SSE,156,0.0,0.0,56,0.00,,,0.00,WeatherCatV1.10B1784,2013-02-04 22:33:00,
2013-02-04 14:38:00,62.4,46.0,30.00,SSE,155,0.0,1.0,55,0.00,,,0.00,WeatherCatV1.10B1784,2013-02-04 22:38:00,
2013-02-04 14:43:00,62.2,46.3,30.00,SE,144,0.0,1.0,56,0.00,,,0.00,WeatherCatV1.10B1784,2013-02-04 22:43:00,
2013-02-04 14:48:00,62.0,46.1,30.00,SE,146,0.0,0.0,56,0.00,,,0.00,WeatherCatV1.10B1784,2013-02-04 22:48:00,
2013-02-04 14:53:00,62.0,46.6,30.00,SE,138,0.0,1.0,57,0.00,,,0.00,WeatherCatV1.10B1784,2013-02-04 22:53:00,
2013-02-04 14:58:00,62.1,46.2,30.00,ESE,106,0.0,0.0,56,0.00,,,0.00,WeatherCatV1.10B1784,2013-02-04 22:58:00,
2013-02-04 15:03:00,62.2,45.8,30.00,ENE,69,0.0,1.0,55,0.00,,,0.00,WeatherCatV1.10B1784,2013-02-04 23:03:00,
2013-02-04 15:08:00,62.2,45.8,30.00,North,9,0.0,1.0,55,0.00,,,0.00,WeatherCatV1.10B1784,2013-02-04 23:08:00,
2013-02-04 15:13:00,62.2,46.3,30.00,North,3,0.0,1.0,56,0.00,,,0.00,WeatherCatV1.10B1784,2013-02-04 23:13:00,
2013-02-04 15:18:00,62.0,46.6,30.00,North,3,0.0,0.0,57,0.00,,,0.00,WeatherCatV1.10B1784,2013-02-04 23:18:00,
2013-02-04 15:23:00,61.7,45.4,30.00,South,169,0.0,2.0,55,0.00,,,0.00,WeatherCatV1.10B1784,2013-02-04 23:23:00,
2013-02-04 15:28:00,61.3,45.5,30.00,WSW,249,0.0,0.0,56,0.00,,,0.00,WeatherCatV1.10B1784,2013-02-04 23:28:00,
2013-02-04 15:33:00,60.9,45.1,30.00,NNW,338,0.0,2.0,56,0.00,,,0.00,WeatherCatV1.10B1784,2013-02-04 23:33:00,
2013-02-04 15:38:00,60.7,45.4,30.00,NNW,338,0.0,0.0,57,0.00,,,0.00,WeatherCatV1.10B1784,2013-02-04 23:38:00,
2013-02-04 15:43:00,60.6,44.8,30.00,NNW,338,0.0,0.0,56,0.00,,,0.00,WeatherCatV1.10B1784,2013-02-04 23:43:00,
2013-02-04 15:48:00,60.6,43.9,30.00,NE,38,0.0,1.0,54,0.00,,,0.00,WeatherCatV1.10B1784,2013-02-04 23:48:00,
2013-02-04 15:53:00,60.5,44.7,30.00,NE,38,0.0,0.0,56,0.00,,,0.00,WeatherCatV1.10B1784,2013-02-04 23:53:00,
2013-02-04 15:58:00,60.5,44.7,30.00,NE,38,0.0,0.0,56,0.00,,,0.00,WeatherCatV1.10B1784,2013-02-04 23:58:00,
2013-02-04 16:03:00,60.1,44.8,30.00,North,351,1.0,3.0,57,0.00,,,0.00,WeatherCatV1.10B1784,2013-02-05 00:03:00,
2013-02-04 16:08:00,59.5,45.2,30.00,NNW,341,1.0,3.0,59,0.00,,,0.00,WeatherCatV1.10B1784,2013-02-05 00:08:00,
2013-02-04 16:13:00,59.0,45.1,30.00,NNW,331,3.0,3.0,60,0.00,,,0.00,WeatherCatV1.10B1784,2013-02-05 00:13:00,
2013-02-04 16:18:00,58.5,45.1,30.00,NNW,328,3.0,4.0,61,0.00,,,0.00,WeatherCatV1.10B1784,2013-02-05 00:18:00,
2013-02-04 16:23:00,57.9,45.0,30.00,NNW,341,3.0,3.0,62,0.00,,,0.00,WeatherCatV1.10B1784,2013-02-05 00:23:00,
2013-02-04 16:28:00,57.4,44.9,30.00,NNW,339,3.0,4.0,63,0.00,,,0.00,WeatherCatV1.10B1784,2013-02-05 00:28:00,
2013-02-04 16:33:00,56.8,44.8,30.00,NNW,340,2.0,6.0,64,0.00,,,0.00,WeatherCatV1.10B1784,2013-02-05 00:33:00,
2013-02-04 16:38:00,56.2,45.0,30.00,NNW,333,3.0,5.0,66,0.00,,,0.00,WeatherCatV1.10B1784,2013-02-05 00:38:00,
2013-02-04 16:43:00,55.9,45.1,30.00,NNW,334,2.0,4.0,67,0.00,,,0.00,WeatherCatV1.10B1784,2013-02-05 00:43:00,
2013-02-04 16:48:00,55.9,45.1,30.00,NNW,341,0.0,1.0,67,0.00,,,0.00,WeatherCatV1.10B1784,2013-02-05 00:48:00,
2013-02-04 16:53:00,55.9,45.1,30.00,NNW,341,0.0,0.0,67,0.00,,,0.00,WeatherCatV1.10B1784,2013-02-05 00:53:00,
2013-02-04 16:58:00,56.0,44.8,30.00,NNW,341,0.0,0.0,66,0.00,,,0.00,WeatherCatV1.10B1784,2013-02-05 00:58:00,
2013-02-04 17:03:00,56.1,45.3,30.00,NNW,341,0.0,0.0,67,0.00,,,0.00,WeatherCatV1.10B1784,2013-02-05 01:03:00,
2013-02-04 17:08:00,56.1,45.3,30.00,NNW,341,0.0,0.0,67,0.00,,,0.00,WeatherCatV1.10B1784,2013-02-05 01:08:00,
2013-02-04 17:13:00,56.0,45.2,30.00,NNW,341,0.0,0.0,67,0.00,,,0.00,WeatherCatV1.10B1784,2013-02-05 01:13:00,
2013-02-04 17:18:00,56.0,45.2,30.00,NNW,341,0.0,0.0,67,0.00,,,0.00,WeatherCatV1.10B1784,2013-02-05 01:18:00,
2013-02-04 17:23:00,55.9,45.1,30.00,NNW,341,0.0,0.0,67,0.00,,,0.00,WeatherCatV1.10B1784,2013-02-05 01:23:00,
2013-02-04 17:28:00,55.8,45.4,30.00,NNW,341,0.0,0.0,68,0.00,,,0.00,WeatherCatV1.10B1784,2013-02-05 01:28:00,
2013-02-04 17:33:00,55.5,45.5,30.00,NNW,341,0.0,0.0,69,0.00,,,0.00,WeatherCatV1.10B1784,2013-02-05 01:33:00,
2013-02-04 17:38:00,55.0,45.4,30.00,NNW,341,0.0,0.0,70,0.00,,,0.00,WeatherCatV1.10B1784,2013-02-05 01:38:00,
2013-02-04 17:43:00,54.5,45.3,30.00,NNW,341,0.0,0.0,71,0.00,,,0.00,WeatherCatV1.10B1784,2013-02-05 01:43:00,
2013-02-04 17:48:00,54.2,45.0,30.00,NNW,339,0.0,0.0,71,0.00,,,0.00,WeatherCatV1.10B1784,2013-02-05 01:48:00,
2013-02-04 17:53:00,53.9,45.1,30.00,NNW,339,0.0,0.0,72,0.00,,,0.00,WeatherCatV1.10B1784,2013-02-05 01:53:00,
2013-02-04 17:58:00,53.8,45.0,30.00,NNW,330,1.0,3.0,72,0.00,,,0.00,WeatherCatV1.10B1784,2013-02-05 01:58:00,
2013-02-04 18:03:00,54.0,45.2,29.99,NNW,335,3.0,3.0,72,0.00,,,0.00,WeatherCatV1.10B1784,2013-02-05 02:03:00,
2013-02-04 18:08:00,54.5,44.9,29.99,NNW,341,1.0,3.0,70,0.00,,,0.00,WeatherCatV1.10B1784,2013-02-05 02:08:00,
2013-02-04 18:13:00,54.9,44.9,29.99,NNW,337,4.0,4.0,69,0.00,,,0.00,WeatherCatV1.10B1784,2013-02-05 02:13:00,
2013-02-04 18:18:00,55.4,45.0,29.99,NNW,335,2.0,3.0,68,0.00,,,0.00,WeatherCatV1.10B1784,2013-02-05 02:18:00,
2013-02-04 18:23:00,55.7,44.9,29.99,NNW,335,3.0,3.0,67,0.00,,,0.00,WeatherCatV1.10B1784,2013-02-05 02:23:00,
2013-02-04 18:28:00,56.0,44.8,29.99,NNW,341,3.0,3.0,66,0.00,,,0.00,WeatherCatV1.10B1784,2013-02-05 02:28:00,
2013-02-04 18:33:00,56.2,44.6,29.99,NNW,340,2.0,3.0,65,0.00,,,0.00,WeatherCatV1.10B1784,2013-02-05 02:33:00,
2013-02-04 18:38:00,56.5,44.9,29.99,NNW,333,2.0,3.0,65,0.00,,,0.00,WeatherCatV1.10B1784,2013-02-05 02:38:00,
2013-02-04 18:43:00,56.7,44.7,29.99,NNW,340,2.0,3.0,64,0.00,,,0.00,WeatherCatV1.10B1784,2013-02-05 02:43:00,
2013-02-04 18:48:00,56.7,44.2,29.99,NNW,337,0.0,2.0,63,0.00,,,0.00,WeatherCatV1.10B1784,2013-02-05 02:48:00,
2013-02-04 18:53:00,56.6,43.7,29.99,NNW,329,0.0,0.0,62,0.00,,,0.00,WeatherCatV1.10B1784,2013-02-05 02:53:00,
2013-02-04 18:58:00,56.5,43.2,29.99,NNW,329,0.0,0.0,61,0.00,,,0.00,WeatherCatV1.10B1784,2013-02-05 02:58:00,
2013-02-04 19:03:00,56.4,42.7,30.00,NNW,329,0.0,0.0,60,0.00,,,0.00,WeatherCatV1.10B1784,2013-02-05 03:03:00,
2013-02-04 19:08:00,56.3,42.2,30.00,NNW,329,0.0,0.0,59,0.00,,,0.00,WeatherCatV1.10B1784,2013-02-05 03:08:00,
2013-02-04 19:13:00,56.3,42.6,30.00,NNW,329,0.0,0.0,60,0.00,,,0.00,WeatherCatV1.10B1784,2013-02-05 03:13:00,
2013-02-04 19:18:00,56.1,42.4,29.99,NNW,329,0.0,0.0,60,0.00,,,0.00,WeatherCatV1.10B1784,2013-02-05 03:18:00,
2013-02-04 19:23:00,56.0,42.3,29.99,NNW,329,0.0,0.0,60,0.00,,,0.00,WeatherCatV1.10B1784,2013-02-05 03:23:00,
2013-02-04 19:28:00,55.8,42.6,29.99,NNW,329,0.0,0.0,61,0.00,,,0.00,WeatherCatV1.10B1784,2013-02-05 03:28:00,
2013-02-04 19:33:00,55.9,43.5,29.99,NNW,329,0.0,0.0,63,0.00,,,0.00,WeatherCatV1.10B1784,2013-02-05 03:33:00,
2013-02-04 19:38:00,55.9,43.9,29.99,NNW,329,0.0,0.0,64,0.00,,,0.00,WeatherCatV1.10B1784,2013-02-05 03:38:00,
2013-02-04 19:43:00,55.9,43.9,29.99,NNW,329,0.0,0.0,64,0.00,,,0.00,WeatherCatV1.10B1784,2013-02-05 03:43:00,
2013-02-04 19:48:00,55.9,43.9,29.99,NNW,329,0.0,0.0,64,0.00,,,0.00,WeatherCatV1.10B1784,2013-02-05 03:48:00,
2013-02-04 19:53:00,55.9,43.9,29.99,NNW,329,0.0,0.0,64,0.00,,,0.00,WeatherCatV1.10B1784,2013-02-05 03:53:00,
2013-02-04 19:58:00,55.8,43.8,29.99,South,177,0.0,1.0,64,0.00,,,0.00,WeatherCatV1.10B1784,2013-02-05 03:58:00,
2013-02-04 20:03:00,55.7,43.7,30.00,South,177,0.0,0.0,64,0.00,,,0.00,WeatherCatV1.10B1784,2013-02-05 04:03:00,
2013-02-04 20:08:00,55.4,43.8,30.00,South,177,0.0,0.0,65,0.00,,,0.00,WeatherCatV1.10B1784,2013-02-05 04:08:00,
2013-02-04 20:13:00,55.2,43.6,30.00,South,190,0.0,0.0,65,0.00,,,0.00,WeatherCatV1.10B1784,2013-02-05 04:13:00,
2013-02-04 20:18:00,54.8,43.7,30.00,South,190,0.0,0.0,66,0.00,,,0.00,WeatherCatV1.10B1784,2013-02-05 04:18:00,
2013-02-04 20:23:00,54.5,43.8,30.00,WNW,291,0.0,0.0,67,0.00,,,0.00,WeatherCatV1.10B1784,2013-02-05 04:23:00,
2013-02-04 20:28:00,54.1,43.8,30.00,NW,311,0.0,0.0,68,0.00,,,0.00,WeatherCatV1.10B1784,2013-02-05 04:28:00,
2013-02-04 20:33:00,53.9,43.6,30.00,NW,321,0.0,0.0,68,0.00,,,0.00,WeatherCatV1.10B1784,2013-02-05 04:33:00,
2013-02-04 20:38:00,53.8,43.5,30.00,NW,321,0.0,0.0,68,0.00,,,0.00,WeatherCatV1.10B1784,2013-02-05 04:38:00,
2013-02-04 20:43:00,53.7,43.8,30.00,NW,321,0.0,0.0,69,0.00,,,0.00,WeatherCatV1.10B1784,2013-02-05 04:43:00,
2013-02-04 20:48:00,53.8,44.2,30.00,NW,321,0.0,0.0,70,0.00,,,0.00,WeatherCatV1.10B1784,2013-02-05 04:48:00,
2013-02-04 20:53:00,53.9,44.3,30.00,NW,321,0.0,0.0,70,0.00,,,0.00,WeatherCatV1.10B1784,2013-02-05 04:53:00,
2013-02-04 20:58:00,53.9,44.0,30.00,NW,321,0.0,0.0,69,0.00,,,0.00,WeatherCatV1.10B1784,2013-02-05 04:58:00,
2013-02-04 21:00:00,53.9,44.0,30.00,NW,321,0.0,0.0,69,0.00,,,0.00,WeatherCatV1.10B1784,2013-02-05 05:00:00,
2013-02-04 21:05:00,53.8,43.9,30.00,NW,321,0.0,0.0,69,0.00,,,0.00,WeatherCatV1.10B1784,2013-02-05 05:05:00,
2013-02-04 21:10:00,53.7,43.8,30.00,NW,321,0.0,0.0,69,0.00,,,0.00,WeatherCatV1.10B1784,2013-02-05 05:10:00,
2013-02-04 21:15:00,53.6,43.7,30.01,NW,321,0.0,0.0,69,0.00,,,0.00,WeatherCatV1.10B1784,2013-02-05 05:15:00,
2013-02-04 21:20:00,53.5,44.0,30.01,NW,321,0.0,0.0,70,0.00,,,0.00,WeatherCatV1.10B1784,2013-02-05 05:20:00,
2013-02-04 21:25:00,53.3,43.8,30.01,NW,321,0.0,0.0,70,0.00,,,0.00,WeatherCatV1.10B1784,2013-02-05 05:25:00,
2013-02-04 21:30:00,53.1,43.9,30.01,NW,321,0.0,0.0,71,0.00,,,0.00,WeatherCatV1.10B1784,2013-02-05 05:30:00,
2013-02-04 21:35:00,53.0,44.2,30.01,NW,321,0.0,0.0,72,0.00,,,0.00,WeatherCatV1.10B1784,2013-02-05 05:35:00,
2013-02-04 21:40:00,52.8,44.0,30.01,NW,321,0.0,0.0,72,0.00,,,0.00,WeatherCatV1.10B1784,2013-02-05 05:40:00,
2013-02-04 21:45:00,52.7,44.3,30.00,NW,321,0.0,0.0,73,0.00,,,0.00,WeatherCatV1.10B1784,2013-02-05 05:45:00,
2013-02-04 21:50:00,52.6,44.2,30.00,NW,321,0.0,0.0,73,0.00,,,0.00,WeatherCatV1.10B1784,2013-02-05 05:50:00,
2013-02-04 21:55:00,52.4,44.0,30.00,NW,321,0.0,0.0,73,0.00,,,0.00,WeatherCatV1.10B1784,2013-02-05 05:55:00,
2013-02-04 22:00:00,52.3,44.3,30.00,NW,321,0.0,0.0,74,0.00,,,0.00,WeatherCatV1.10B1784,2013-02-05 06:00:00,
2013-02-04 22:05:00,52.2,44.2,30.00,NW,321,0.0,0.0,74,0.00,,,0.00,WeatherCatV1.10B1784,2013-02-05 06:05:00,
2013-02-04 22:10:00,52.1,44.4,30.00,NW,321,0.0,0.0,75,0.00,,,0.00,WeatherCatV1.10B1784,2013-02-05 06:10:00,
2013-02-04 22:15:00,52.0,44.3,30.00,NW,321,0.0,0.0,75,0.00,,,0.00,WeatherCatV1.10B1784,2013-02-05 06:15:00,
2013-02-04 22:20:00,51.9,43.9,30.00,NW,321,0.0,0.0,74,0.00,,,0.00,WeatherCatV1.10B1784,2013-02-05 06:20:00,
2013-02-04 22:25:00,51.8,44.1,30.00,NW,321,0.0,0.0,75,0.00,,,0.00,WeatherCatV1.10B1784,2013-02-05 06:25:00,
2013-02-04 22:30:00,51.7,44.0,30.00,NW,321,0.0,0.0,75,0.00,,,0.00,WeatherCatV1.10B1784,2013-02-05 06:30:00,
2013-02-04 22:35:00,51.7,44.0,30.00,NW,321,0.0,0.0,75,0.00,,,0.00,WeatherCatV1.10B1784,2013-02-05 06:35:00,
2013-02-04 22:40:00,51.7,44.0,30.00,NW,321,0.0,0.0,75,0.00,,,0.00,WeatherCatV1.10B1784,2013-02-05 06:40:00,
2013-02-04 22:45:00,51.7,44.0,30.00,NW,321,0.0,0.0,75,0.00,,,0.00,WeatherCatV1.10B1784,2013-02-05 06:45:00,
2013-02-04 22:50:00,51.7,44.0,30.00,NW,321,0.0,0.0,75,0.00,,,0.00,WeatherCatV1.10B1784,2013-02-05 06:50:00,
2013-02-04 22:55:00,51.5,43.8,30.00,NW,321,0.0,0.0,75,0.00,,,0.00,WeatherCatV1.10B1784,2013-02-05 06:55:00,
2013-02-04 23:00:00,51.4,43.7,30.00,NW,321,0.0,0.0,75,0.00,,,0.00,WeatherCatV1.10B1784,2013-02-05 07:00:00,
2013-02-04 23:05:00,51.3,43.6,30.00,NW,321,0.0,0.0,75,0.00,,,0.00,WeatherCatV1.10B1784,2013-02-05 07:05:00,
2013-02-04 23:10:00,51.2,43.6,30.00,NW,321,0.0,0.0,75,0.00,,,0.00,WeatherCatV1.10B1784,2013-02-05 07:10:00,
2013-02-04 23:15:00,51.0,43.7,30.00,NW,321,0.0,0.0,76,0.00,,,0.00,WeatherCatV1.10B1784,2013-02-05 07:15:00,
2013-02-04 23:20:00,50.8,43.9,30.00,NW,321,0.0,0.0,77,0.00,,,0.00,WeatherCatV1.10B1784,2013-02-05 07:20:00,
2013-02-04 23:25:00,50.5,43.6,30.00,NW,321,0.0,0.0,77,0.00,,,0.00,WeatherCatV1.10B1784,2013-02-05 07:25:00,
2013-02-04 23:30:00,50.1,43.5,30.00,NW,321,0.0,0.0,78,0.00,,,0.00,WeatherCatV1.10B1784,2013-02-05 07:30:00,
2013-02-04 23:35:00,49.8,43.2,30.00,NW,321,0.0,0.0,78,0.00,,,0.00,WeatherCatV1.10B1784,2013-02-05 07:35:00,
2013-02-04 23:40:00,49.5,43.3,30.00,NW,321,0.0,1.0,79,0.00,,,0.00,WeatherCatV1.10B1784,2013-02-05 07:40:00,
2013-02-04 23:45:00,49.2,43.0,30.00,NW,321,0.0,0.0,79,0.00,,,0.00,WeatherCatV1.10B1784,2013-02-05 07:45:00,
2013-02-04 23:50:00,49.1,42.9,30.00,NW,321,0.0,0.0,79,0.00,,,0.00,WeatherCatV1.10B1784,2013-02-05 07:50:00,
2013-02-04 23:55:00,49.1,42.9,30.00,NW,321,0.0,0.0,79,0.00,,,0.00,WeatherCatV1.10B1784,2013-02-05 07:55:00,